Location: Tierra del Sol
(32.6128°N, 116.3319°W)
Time: 07:17:19
(UTC-07:00)

Amateur Radio Satellites - All Passes

Search period start: 05 September 2015 06:47
Search period end: 06 September 2015 06:47
Location: Tierra del Sol, 32.6128°N, 116.3319°W

Satellite Date Start Highest point End Downlink Frequencies (MHz)
Time Altitude Azimuth
VERMONT LUNAR 05 Sep 06:53:42 06:56:39 66° 208° (SSW) 06:59:34 437.305
YUBILEINY 05 Sep 07:05:59 07:13:31 32° 73° (ENE) 07:21:12 435.215
AIST 1 05 Sep 07:12:05 07:16:02 40° 93° (E) 07:20:02
ISS 05 Sep 07:13:46 07:16:44 32° 321° (NW) 07:19:42 145.825
BRITE-PL 05 Sep 07:21:40 07:26:06 24° 93° (E) 07:30:41 437.365/2234.400
GOMX 1 05 Sep 07:26:39 07:29:21 14° 89° (E) 07:32:22 467.674
PHONESAT 2.4 05 Sep 07:34:44 07:37:44 28° 13° (NNE) 07:40:45 2401.200-2431.200
Cubesat XI-IV 05 Sep 07:41:35 07:46:37 42° 287° (WNW) 07:51:36 437.490
HO-68 05 Sep 07:41:41 07:42:36 10° 88° (E) 07:44:13 435.675
Cosmos 2491 05 Sep 07:49:52 07:57:27 36° 88° (E) 08:05:14 435.465 / 435.565
SO-50 05 Sep 07:50:29 07:52:11 12° 45° (NE) 07:54:08 436.795
PRISM 05 Sep 08:05:59 08:09:23 24° 264° (W) 08:12:42 437.425
CUTE-I 05 Sep 08:26:26 08:29:48 17° 293° (WNW) 08:32:56 437.470
STRAND 1 05 Sep 08:28:09 08:30:57 14° 269° (W) 08:33:27 437.568
DOVE 4 05 Sep 08:51:26 08:56:42 64° 100° (E) 09:01:48 437.250
AIST 1 05 Sep 08:52:12 08:53:57 12° 288° (WNW) 08:55:28
CUSAT 1 05 Sep 08:57:49 09:01:42 15° 64° (ENE) 09:06:09 437.405
BRITE-PL 05 Sep 08:59:26 09:04:40 39° 287° (WNW) 09:09:53 437.365/2234.400
CINEMA 3 05 Sep 09:00:32 09:04:50 31° 95° (E) 09:09:03 145.822/145.860
YUBILEINY 05 Sep 09:02:15 09:10:35 47° 270° (W) 09:18:45 435.215
GOMX 1 05 Sep 09:02:29 09:07:54 60° 285° (WNW) 09:13:13 467.674
CUTE 1.7 + AOD 2 05 Sep 09:12:01 09:16:13 72° 101° (E) 09:20:24 437.475
PHONESAT 2.4 05 Sep 09:12:25 09:15:48 70° 209° (SSW) 09:19:11 2401.200-2431.200
JUGNU 05 Sep 09:12:34 09:13:48 11° 163° (SSE) 09:15:11 437.505
Cosmos 2504 05 Sep 09:14:26 09:21:02 27° 71° (ENE) 09:27:32 435.465 / 435.565
HO-68 05 Sep 09:24:11 09:31:25 84° 103° (ESE) 09:38:37 435.675
CANX-2 05 Sep 09:26:52 09:31:04 64° 284° (WNW) 09:35:12 2200.000
SO-50 05 Sep 09:28:32 09:33:27 81° 243° (WSW) 09:38:11 436.795
ZACube-1 05 Sep 09:32:35 09:34:57 15° 91° (E) 09:37:29 437.345
ANTELSAT 05 Sep 09:33:49 09:36:42 17° 69° (ENE) 09:39:46 437.575/2403.000
FUNcube-1 05 Sep 09:35:28 09:37:58 15° 92° (E) 09:40:37 145.935
SEEDS 05 Sep 09:39:08 09:43:17 66° 283° (WNW) 09:47:23 437.485
AUBIESAT-1 05 Sep 09:41:18 09:44:16 17° 66° (ENE) 09:47:22 437.475
Cosmos 2491 05 Sep 09:46:09 09:54:14 40° 284° (WNW) 10:02:13 435.465 / 435.565
DELFI C3 05 Sep 09:46:32 09:49:28 20° 95° (E) 09:52:30 145.870
UWE-3 05 Sep 09:49:44 09:53:47 33° 96° (E) 09:57:45 435.000/436.395/437.385
M-CUBED/EXP-1 PRIME 05 Sep 09:50:41 09:54:36 26° 67° (ENE) 09:58:32 437.505
COMPASS 1 05 Sep 09:52:29 09:56:34 59° 284° (WNW) 10:00:36 437.405
CUBEBUG 2 05 Sep 09:53:20 09:57:47 50° 99° (E) 10:02:06 437.445
AAUSAT CUBESAT 2 05 Sep 09:58:06 10:02:10 60° 284° (WNW) 10:06:13 437.432
DANDE 05 Sep 10:00:28 10:07:34 33° 73° (ENE) 10:15:03 436.750
Oscar 11 05 Sep 10:12:34 10:16:53 77° 101° (E) 10:21:10 145.826/435.025
UNISAT 6 05 Sep 10:22:45 10:27:22 60° 75° (ENE) 10:32:01 437.425
PCSat 05 Sep 10:29:33 10:34:59 78° 63° (ENE) 10:40:24 145.827
DUCHIFAT 1 05 Sep 10:29:40 10:32:45 21° 71° (ENE) 10:35:58 145.980
DOVE 4 05 Sep 10:31:18 10:33:54 13° 293° (WNW) 10:36:10 437.250
POLYITAN 1 05 Sep 10:33:06 10:36:31 24° 72° (ENE) 10:40:03 437.675
POPSAT HIP 1 05 Sep 10:33:38 10:37:01 24° 72° (ENE) 10:40:30 437.405
CUSAT 1 05 Sep 10:37:17 10:45:33 81° 81° (E) 10:53:28 437.405
CINEMA 3 05 Sep 10:38:01 10:41:50 22° 290° (WNW) 10:45:26 145.822/145.860
NANOSAT C BR1 05 Sep 10:48:17 10:52:08 35° 74° (ENE) 10:56:03 145.865
TIGRISAT 05 Sep 10:49:05 10:53:45 71° 259° (W) 10:58:29 435.000
QB50P2 05 Sep 10:51:19 10:55:18 41° 74° (ENE) 10:59:21 145.880/145.840
AISAT 05 Sep 10:57:21 11:00:22 18° 94° (E) 11:03:32 437.250
JUGNU 05 Sep 10:58:01 11:02:13 20° 171° (S) 11:06:27 437.505
ESTCUBE 1 05 Sep 11:03:38 11:06:10 15° 92° (E) 11:08:56 437.505/2401.250
QB50P1 05 Sep 11:03:52 11:08:01 57° 76° (ENE) 11:12:14 145.935-145.965
Cosmos 2504 05 Sep 11:05:43 11:13:41 51° 270° (W) 11:21:02 435.465 / 435.565
ZACube-1 05 Sep 11:07:26 11:11:30 36° 286° (WNW) 11:15:26 437.345
ANTELSAT 05 Sep 11:08:45 11:13:10 40° 262° (W) 11:17:36 437.575/2403.000
HUMSAT D 05 Sep 11:09:11 11:13:23 82° 101° (ESE) 11:17:30 437.325/437.525
FUNcube-1 05 Sep 11:10:25 11:14:27 35° 287° (WNW) 11:18:19 145.935
AUBIESAT-1 05 Sep 11:14:10 11:18:40 43° 257° (WSW) 11:23:05 437.475
HO-68 05 Sep 11:14:16 11:18:25 16° 299° (WNW) 11:22:08 435.675
DELFI C3 05 Sep 11:21:20 11:24:28 22° 288° (WNW) 11:27:30 145.870
50 SAT 05 Sep 11:22:28 11:26:06 41° 99° (E) 11:29:43 437.505
VELOX 1 05 Sep 11:23:09 11:27:14 35° 98° (E) 11:31:20 145.980
M-CUBED/EXP-1 PRIME 05 Sep 11:25:05 11:29:14 28° 259° (W) 11:33:16 437.505
UWE-3 05 Sep 11:27:02 11:30:03 17° 290° (WNW) 11:32:52 435.000/436.395/437.385
CUBEBUG 2 05 Sep 11:32:00 11:34:01 12° 292° (WNW) 11:35:46 437.445
DANDE 05 Sep 11:42:59 11:50:56 52° 267° (W) 11:58:57 436.750
BUGSAT 1 05 Sep 11:48:39 11:52:42 68° 259° (W) 11:56:48 437.445
DX 1 05 Sep 11:49:19 11:53:42 66° 284° (WNW) 11:58:01 434.975-435.025
UKube-1 05 Sep 11:53:39 11:57:57 65° 284° (WNW) 12:02:15 .
SPROUT 05 Sep 11:53:52 11:55:41 13° 91° (E) 11:57:44 437.525
GONETS M04 05 Sep 11:57:04 12:00:17 13° 63° (ENE) 12:04:17
UNISAT 6 05 Sep 12:03:35 12:04:34 10° 270° (W) 12:05:11 437.425
DUCHIFAT 1 05 Sep 12:04:50 12:08:24 25° 264° (W) 12:11:56 145.980
POLYITAN 1 05 Sep 12:09:00 12:12:22 22° 265° (W) 12:15:38 437.675
POPSAT HIP 1 05 Sep 12:09:28 12:12:49 22° 265° (W) 12:16:06 437.405
Oscar 19 05 Sep 12:12:07 12:14:18 13° 66° (ENE) 12:16:46 437.125/150
CUBEBUG 1 05 Sep 12:16:47 12:21:14 86° 283° (WNW) 12:25:40 437.445
SRMSAT 05 Sep 12:18:10 12:21:55 17° 168° (SSE) 12:25:44 437.500
CUSAT 1 05 Sep 12:21:57 12:27:21 18° 275° (W) 12:32:10 437.405
NANOSAT C BR1 05 Sep 12:25:40 12:28:07 14° 268° (W) 12:30:23 145.865
QB50P2 05 Sep 12:29:27 12:31:25 13° 269° (W) 12:33:10 145.880/145.840
BEESAT 3 05 Sep 12:32:37 12:35:15 17° 111° (ESE) 12:38:02 437.485
AISAT 05 Sep 12:33:00 12:37:00 32° 288° (WNW) 12:40:57 437.250
TISAT 1 05 Sep 12:35:46 12:39:02 22° 95° (E) 12:42:24 437.305
ESTCUBE 1 05 Sep 12:39:02 12:43:13 38° 286° (WNW) 12:47:21 437.505/2401.250
JUGNU 05 Sep 12:46:01 12:50:40 24° 181° (S) 12:55:18 437.505
BEESAT 2 05 Sep 12:52:08 12:55:13 22° 112° (ESE) 12:58:26 435.950
50 SAT 05 Sep 12:59:38 13:00:15 10° 291° (WNW) 13:00:39 437.505
VELOX 1 05 Sep 13:00:33 13:03:32 17° 290° (WNW) 13:06:20 145.980
ITAMSAT 1 05 Sep 13:21:53 13:24:42 15° 67° (ENE) 13:27:47 435.822/435.867
SPROUT 05 Sep 13:27:53 13:31:59 41° 286° (WNW) 13:36:03 437.525
Gurwin Techsat 1B 05 Sep 13:33:07 13:37:22 26° 70° (ENE) 13:41:45 435.225
ISS 05 Sep 13:44:42 13:47:34 28° 38° (NE) 13:50:27 145.825
ITUPSAT 1 05 Sep 13:46:17 13:49:50 21° 95° (E) 13:53:31 437.325
Oscar 19 05 Sep 13:48:04 13:53:11 63° 260° (W) 13:58:20 437.125/150
GONETS M04 05 Sep 13:49:53 13:58:46 82° 84° (E) 14:07:37
AIST 2 05 Sep 14:04:20 14:07:49 26° 112° (ESE) 14:11:24 435.215
SRMSAT 05 Sep 14:05:55 14:10:30 23° 178° (S) 14:15:05 437.500
BEESAT 3 05 Sep 14:09:21 14:12:58 30° 304° (NW) 14:16:34 437.485
TISAT 1 05 Sep 14:11:15 14:14:44 24° 288° (WNW) 14:18:07 437.305
BEESAT 05 Sep 14:15:13 14:19:47 46° 99° (E) 14:24:22 436.000
JAS-2 05 Sep 14:22:04 14:29:18 46° 71° (ENE) 14:36:43 435.910
RS-15 05 Sep 14:28:09 14:38:09 46° 110° (ESE) 14:48:36 29.354- 29.394
BEESAT 2 05 Sep 14:29:42 14:33:09 25° 305° (NW) 14:36:34 435.950
JUGNU 05 Sep 14:35:07 14:39:07 18° 191° (S) 14:43:01 437.505
SWISSCUBE 05 Sep 14:41:50 14:46:36 79° 284° (WNW) 14:51:22 437.505
AO-7 05 Sep 14:51:25 14:58:34 35° 65° (ENE) 15:05:54 29.400- 29.500
Cosmos 2499 05 Sep 14:53:22 15:01:35 56° 79° (ENE) 15:09:14 435.465 / 435.565
ITAMSAT 1 05 Sep 14:58:47 15:03:50 52° 260° (W) 15:08:52 435.822/435.867
STARS 05 Sep 15:06:44 15:08:37 13° 92° (E) 15:10:45 437.465
Gurwin Techsat 1B 05 Sep 15:12:31 15:17:14 31° 263° (W) 15:21:53 435.225
ISS 05 Sep 15:21:28 15:23:51 19° 231° (SW) 15:26:09 145.825
ITUPSAT 1 05 Sep 15:23:34 15:27:46 31° 288° (WNW) 15:31:53 437.325
KKS-1 05 Sep 15:36:53 15:41:19 56° 100° (E) 15:45:43 437.445
HORYU 2 05 Sep 15:42:42 15:47:01 49° 74° (ENE) 15:51:22 437.375
AIST 2 05 Sep 15:42:53 15:46:20 23° 306° (NW) 15:49:44 435.215
GONETS M04 05 Sep 15:49:35 15:54:44 16° 277° (W) 15:59:15
BEESAT 05 Sep 15:54:33 15:57:17 15° 292° (WNW) 15:59:47 436.000
SRMSAT 05 Sep 15:54:49 15:59:06 20° 188° (S) 16:03:20 437.500
JAS-2 05 Sep 16:07:36 16:14:25 33° 266° (W) 16:21:12 435.910
MOZHAYETS 4 05 Sep 16:28:29 16:32:20 27° 96° (E) 16:36:16
RS-15 05 Sep 16:40:14 16:50:35 45° 309° (NW) 17:01:12 29.354- 29.394
O/OREOS (USA 219) 05 Sep 16:40:17 16:41:03 11° 100° (E) 16:42:08 437.305
STARS 05 Sep 16:41:05 16:45:18 43° 286° (WNW) 16:49:29 437.465
AO-7 05 Sep 16:43:14 16:51:11 46° 260° (W) 16:59:04 29.400- 29.500
Cosmos 2499 05 Sep 16:47:44 16:54:11 24° 276° (W) 16:59:57 435.465 / 435.565
KKS-1 05 Sep 17:16:05 17:17:30 11° 293° (WNW) 17:18:39 437.445
Cubesat XI-IV 05 Sep 17:20:33 17:24:21 21° 69° (ENE) 17:28:19 437.490
HORYU 2 05 Sep 17:22:10 17:23:58 12° 269° (W) 17:25:27 437.375
SRMSAT 05 Sep 17:45:39 17:47:39 12° 196° (SSW) 17:49:31 437.500
CUTE-I 05 Sep 18:02:16 18:07:25 54° 74° (ENE) 18:12:37 437.470
MOZHAYETS 4 05 Sep 18:05:54 18:09:27 22° 289° (WNW) 18:12:51
Cosmos 2491 05 Sep 18:08:13 18:11:25 13° 63° (ENE) 18:15:24 435.465 / 435.565
O/OREOS (USA 219) 05 Sep 18:15:37 18:20:03 53° 291° (WNW) 18:24:32 437.305
BRITE-PL 05 Sep 18:30:03 18:32:05 13° 67° (ENE) 18:34:25 437.365/2234.400
CUBESAT XI-V 05 Sep 18:36:52 18:41:29 60° 100° (E) 18:46:06 437.345
Cubesat XI-IV 05 Sep 18:59:13 19:04:12 40° 262° (W) 19:09:10 437.490
AIST 1 05 Sep 19:00:46 19:05:08 78° 266° (W) 19:09:30
STRAND 1 05 Sep 19:02:05 19:06:13 25° 95° (E) 19:10:28 437.568
RS-15 05 Sep 19:02:30 19:07:21 13° 340° (NNW) 19:11:46 29.354- 29.394
CUTE-I 05 Sep 19:44:56 19:47:54 14° 269° (W) 19:50:33 437.470
HO-68 05 Sep 19:47:56 19:54:24 40° 68° (ENE) 20:01:01 435.675
PRISM 05 Sep 19:51:36 19:55:41 60° 101° (E) 19:59:46 437.425
DOVE 4 05 Sep 19:52:25 19:56:41 37° 73° (ENE) 20:01:15 437.250
CINEMA 3 05 Sep 19:58:20 20:01:27 18° 69° (ENE) 20:04:49 145.822/145.860
CUTE 1.7 + AOD 2 05 Sep 20:00:38 20:04:16 28° 73° (ENE) 20:07:57 437.475
YUBILEINY 05 Sep 20:00:48 20:08:46 43° 89° (E) 20:16:57 435.215
Cosmos 2491 05 Sep 20:01:05 20:09:53 83° 83° (E) 20:18:43 435.465 / 435.565
GOMX 1 05 Sep 20:05:50 20:10:23 89° 247° (WSW) 20:15:20 467.674
BRITE-PL 05 Sep 20:05:53 20:10:08 47° 262° (W) 20:14:43 437.365/2234.400
CANX-2 05 Sep 20:15:00 20:19:08 48° 75° (ENE) 20:23:16 2200.000
CUBESAT XI-V 05 Sep 20:17:03 20:18:29 11° 292° (WNW) 20:19:37 437.345
SEEDS 05 Sep 20:26:23 20:30:25 45° 75° (ENE) 20:34:29 437.485
COMPASS 1 05 Sep 20:38:48 20:42:50 48° 75° (ENE) 20:46:54 437.405
STRAND 1 05 Sep 20:40:59 20:45:25 30° 289° (WNW) 20:49:47 437.568
UWE-3 05 Sep 20:43:00 20:46:00 18° 70° (ENE) 20:49:13 435.000/436.395/437.385
AAUSAT CUBESAT 2 05 Sep 20:44:00 20:48:00 46° 75° (ENE) 20:52:01 437.432
CUBEBUG 2 05 Sep 20:47:03 20:50:52 26° 72° (ENE) 20:54:51 437.445
Oscar 11 05 Sep 21:02:59 21:06:50 32° 73° (ENE) 21:10:45 145.826/435.025
RS-15 05 Sep 21:23:43 21:27:19 12° 17° (NNE) 21:31:27 29.354- 29.394
DOVE 4 05 Sep 21:31:22 21:34:39 18° 269° (W) 21:37:51 437.250
CINEMA 3 05 Sep 21:33:53 21:38:19 39° 263° (W) 21:42:54 145.822/145.860
HO-68 05 Sep 21:35:50 21:42:11 33° 263° (W) 21:48:26 435.675
CUTE 1.7 + AOD 2 05 Sep 21:37:06 21:40:11 19° 266° (W) 21:43:08 437.475
Cosmos 2504 05 Sep 21:39:19 21:45:04 23° 84° (E) 21:51:24 435.465 / 435.565
CANX-2 05 Sep 21:54:13 21:55:21 11° 270° (W) 21:56:11 2200.000
HUMSAT D 05 Sep 21:56:20 22:00:07 31° 73° (ENE) 22:03:59 437.325/437.525
ZACube-1 05 Sep 21:57:47 22:02:21 85° 260° (W) 22:06:58 437.345
YUBILEINY 05 Sep 21:57:48 22:05:42 35° 286° (WNW) 22:13:30 435.215
FUNcube-1 05 Sep 22:00:30 22:05:03 82° 257° (WSW) 22:09:40 145.935
Cosmos 2491 05 Sep 22:00:52 22:05:53 16° 277° (W) 22:10:16 435.465 / 435.565
DELFI C3 05 Sep 22:02:42 22:06:43 70° 259° (W) 22:10:45 145.870
50 SAT 05 Sep 22:03:00 22:04:48 13° 70° (ENE) 22:06:47 437.505
SEEDS 05 Sep 22:05:04 22:06:29 11° 269° (W) 22:07:37 437.485
VELOX 1 05 Sep 22:17:13 22:20:11 18° 70° (ENE) 22:23:18 145.980
UWE-3 05 Sep 22:17:58 22:22:15 37° 263° (W) 22:26:34 435.000/436.395/437.385
UNISAT 6 05 Sep 22:20:41 22:23:33 17° 93° (E) 22:26:32 437.425
AAUSAT CUBESAT 2 05 Sep 22:22:57 22:23:53 10° 270° (W) 22:24:31 437.432
CUBEBUG 2 05 Sep 22:23:35 22:27:28 25° 265° (W) 22:31:21 437.445
BEESAT 3 05 Sep 22:31:32 22:35:14 35° 57° (ENE) 22:38:54 437.485
DX 1 05 Sep 22:40:13 22:44:28 58° 75° (ENE) 22:48:45 434.975-435.025
Oscar 11 05 Sep 22:40:16 22:43:07 17° 267° (W) 22:45:48 145.826/435.025
UKube-1 05 Sep 22:43:42 22:47:54 57° 75° (ENE) 22:52:10 .
TIGRISAT 05 Sep 22:45:57 22:49:58 33° 97° (E) 22:53:56 435.000
BEESAT 2 05 Sep 22:52:07 22:56:00 45° 59° (ENE) 22:59:50 435.950
QB50P1 05 Sep 22:55:08 22:57:09 13° 92° (E) 22:59:25 145.935-145.965
AUBIESAT-1 05 Sep 23:00:33 23:02:55 17° 98° (E) 23:05:17 437.475
ANTELSAT 05 Sep 23:05:12 23:09:39 61° 100° (E) 23:13:57 437.575/2403.000
CUBEBUG 1 05 Sep 23:08:26 23:12:30 43° 74° (ENE) 23:16:37 437.445
DANDE 05 Sep 23:08:27 23:11:22 23° 87° (E) 23:15:06 436.750
M-CUBED/EXP-1 PRIME 05 Sep 23:10:57 23:14:11 30° 101° (E) 23:17:15 437.505
VERMONT LUNAR 05 Sep 23:21:04 23:22:46 14° 143° (SE) 23:24:33 437.305
PCSat 05 Sep 23:25:11 23:28:48 19° 107° (ESE) 23:32:39 145.827
AISAT 05 Sep 23:25:33 23:29:55 63° 259° (W) 23:34:19 437.250
Cosmos 2504 05 Sep 23:28:32 23:36:37 63° 279° (W) 23:45:08 435.465 / 435.565
HUMSAT D 05 Sep 23:32:59 23:35:55 17° 267° (W) 23:38:42 437.325/437.525
ESTCUBE 1 05 Sep 23:33:37 23:38:05 73° 259° (WSW) 23:42:34 437.505/2401.250
RS-15 05 Sep 23:34:03 23:44:46 39° 48° (NE) 23:56:00 29.354- 29.394
50 SAT 05 Sep 23:35:23 23:39:02 35° 262° (W) 23:42:39 437.505
BUGSAT 1 05 Sep 23:35:43 23:39:10 24° 95° (E) 23:42:41 437.445
SO-50 05 Sep 23:38:02 23:42:46 85° 299° (WNW) 23:47:41 436.795
CUSAT 1 05 Sep 23:39:15 23:43:17 73° 280° (W) 23:48:46 437.405
VELOX 1 05 Sep 23:52:36 23:56:31 31° 263° (W) 00:00:25 145.980
DUCHIFAT 1 05 Sep 23:53:04 23:57:20 70° 101° (E) 00:01:34 145.980
UNISAT 6 05 Sep 23:56:26 00:00:26 32° 288° (WNW) 00:04:19 437.425
POLYITAN 1 05 Sep 23:57:41 00:02:00 87° 101° (ESE) 00:06:16 437.675
POPSAT HIP 1 05 Sep 23:57:55 00:02:14 85° 101° (ESE) 00:06:30 437.405
AIST 2 06 Sep 00:07:48 00:11:54 58° 60° (ENE) 00:15:55 435.215
BEESAT 3 06 Sep 00:10:42 00:12:51 14° 250° (WSW) 00:14:49 437.485
NANOSAT C BR1 06 Sep 00:12:48 00:17:03 63° 284° (WNW) 00:21:14 145.865
QB50P2 06 Sep 00:16:32 00:20:44 53° 285° (WNW) 00:24:53 145.880/145.840
SPROUT 06 Sep 00:16:55 00:21:12 81° 77° (ENE) 00:25:32 437.525
TIGRISAT 06 Sep 00:23:28 00:26:28 17° 291° (WNW) 00:29:16 435.000
QB50P1 06 Sep 00:29:13 00:33:13 38° 286° (WNW) 00:37:09 145.935-145.965
BEESAT 2 06 Sep 00:32:28 00:33:39 11° 251° (WSW) 00:34:34 435.950
AUBIESAT-1 06 Sep 00:34:52 00:37:38 20° 294° (WNW) 00:40:12 437.475
M-CUBED/EXP-1 PRIME 06 Sep 00:47:01 00:48:41 12° 296° (WNW) 00:50:09 437.505
CUBEBUG 1 06 Sep 00:47:12 00:49:07 12° 269° (W) 00:50:47 437.445
ITUPSAT 1 06 Sep 00:49:44 00:52:25 16° 68° (ENE) 00:55:20 437.325
DANDE 06 Sep 00:51:50 00:54:37 18° 294° (WNW) 00:57:45 436.750
GONETS M04 06 Sep 00:52:39 00:57:31 17° 83° (E) 01:02:58
VERMONT LUNAR 06 Sep 00:55:55 00:58:55 69° 335° (NNW) 01:01:55 437.305
TISAT 1 06 Sep 00:57:51 01:01:59 58° 260° (W) 01:06:10 437.305
PCSat 06 Sep 01:06:45 01:11:55 45° 300° (WNW) 01:17:06 145.827
BUGSAT 1 06 Sep 01:11:11 01:14:31 22° 289° (WNW) 01:17:44 437.445
BEESAT 06 Sep 01:17:28 01:21:39 32° 72° (ENE) 01:25:54 436.000
SO-50 06 Sep 01:23:30 01:24:10 10° 317° (NW) 01:24:32 436.795
SWISSCUBE 06 Sep 01:43:43 01:48:26 71° 76° (ENE) 01:53:11 437.505
RS-15 06 Sep 01:46:10 01:57:54 60° 248° (WSW) 02:09:46 29.354- 29.394
PHONESAT 2.4 06 Sep 01:54:26 01:57:11 23° 144° (SE) 01:59:59 2401.200-2431.200
Gurwin Techsat 1B 06 Sep 01:54:51 01:57:31 14° 91° (E) 02:00:30 435.225
Oscar 19 06 Sep 02:04:12 02:09:22 68° 101° (E) 02:14:31 437.125/150
ITUPSAT 1 06 Sep 02:25:26 02:29:59 44° 261° (W) 02:34:32 437.325
KKS-1 06 Sep 02:30:53 02:34:41 29° 72° (ENE) 02:38:35 437.445
VERMONT LUNAR 06 Sep 02:33:16 02:35:37 20° 350° (N) 02:37:57 437.305
GONETS M04 06 Sep 02:44:52 02:53:33 76° 278° (W) 03:02:18
O/OREOS (USA 219) 06 Sep 02:53:25 02:54:42 11° 57° (ENE) 02:56:16 437.305
BEESAT 06 Sep 02:55:58 02:59:33 20° 266° (W) 03:03:00 436.000
AO-7 06 Sep 03:01:22 03:03:36 12° 89° (E) 03:06:40 29.400- 29.500
ITAMSAT 1 06 Sep 03:16:00 03:21:13 81° 102° (ESE) 03:26:25 435.822/435.867
Cosmos 2499 06 Sep 03:22:36 03:30:41 52° 90° (E) 03:39:12 435.465 / 435.565
JAS-2 06 Sep 03:22:54 03:29:13 53° 98° (E) 03:34:49 435.910
MOZHAYETS 4 06 Sep 03:27:01 03:29:48 17° 70° (ENE) 03:32:46
PHONESAT 2.4 06 Sep 03:31:31 03:34:54 56° 338° (NNW) 03:38:17 2401.200-2431.200
Gurwin Techsat 1B 06 Sep 03:32:43 03:37:53 54° 286° (WNW) 03:43:03 435.225
STARS 06 Sep 03:32:53 03:37:18 90° 272° (W) 03:41:45 437.465
HORYU 2 06 Sep 03:40:11 03:42:11 13° 92° (E) 03:44:27 437.375
Oscar 19 06 Sep 03:46:08 03:48:13 12° 294° (WNW) 03:49:59 437.125/150
KKS-1 06 Sep 04:08:01 04:11:21 20° 266° (W) 04:14:33 437.445
VERMONT LUNAR 06 Sep 04:10:23 04:12:37 19° 7° (N) 04:14:51 437.305
O/OREOS (USA 219) 06 Sep 04:30:05 04:34:37 59° 254° (WSW) 04:39:06 437.305
AO-7 06 Sep 04:49:21 04:57:41 82° 106° (ESE) 05:05:59 29.400- 29.500
GONETS M04 06 Sep 04:49:26 04:52:12 11° 298° (WNW) 04:54:07
MOZHAYETS 4 06 Sep 05:02:27 05:06:45 38° 262° (W) 05:11:02
JAS-2 06 Sep 05:09:11 05:13:45 20° 296° (WNW) 05:17:45 435.910
PHONESAT 2.4 06 Sep 05:10:25 05:13:12 22° 353° (N) 05:15:58 2401.200-2431.200
HORYU 2 06 Sep 05:14:52 05:19:04 42° 287° (WNW) 05:23:13 437.375
Cosmos 2499 06 Sep 05:16:52 05:24:15 30° 288° (WNW) 05:31:36 435.465 / 435.565
CUBESAT XI-V 06 Sep 05:36:01 05:40:07 34° 73° (ENE) 05:44:17 437.345
Cubesat XI-IV 06 Sep 05:44:04 05:45:19 11° 90° (E) 05:47:00 437.490
VERMONT LUNAR 06 Sep 05:46:27 05:49:22 54° 23° (NNE) 05:52:17 437.305
STRAND 1 06 Sep 06:13:55 06:17:50 24° 70° (ENE) 06:21:54 437.568
YUBILEINY 06 Sep 06:18:34 06:23:03 15° 65° (ENE) 06:28:09 435.215
ISS 06 Sep 06:20:07 06:23:21 73° 316° (NW) 06:26:36 145.825
CUTE-I 06 Sep 06:24:16 06:28:56 32° 97° (E) 06:33:41 437.470
PRISM 06 Sep 06:37:45 06:40:59 23° 72° (ENE) 06:44:16 437.425
